period_start,C,m1,H,J0,J1,J2,J3,J4,J5,JA,JB,JC,JD,JJ,JK,JN,#
2014-01-31 00:00:01,0.16,7.74,0.67,17.54,24.75,26.83,6.13,36.00,990.27,2048.00,1478.14,1881.03,1971.01,350.16,321.74,30.42,0000 0000 0000 0000 000000
2014-01-31 00:01:01,0.14,7.74,2.00,17.53,24.74,26.81,6.09,35.92,990.30,2048.00,1478.05,1881.01,1970.94,350.24,321.57,30.43,0000 0000 0000 0000 000000
2014-01-31 00:02:01,0.07,7.74,2.00,17.52,24.72,26.79,6.00,35.96,990.36,2048.00,1478.02,1880.99,1970.59,349.11,320.99,30.43,0000 0000 0000 0000 000000
2014-01-31 00:03:02,0.13,7.74,2.00,17.50,24.72,26.79,6.06,36.00,990.30,2048.00,1477.82,1880.88,1970.27,350.04,321.59,30.44,0000 0000 0000 0000 000000
2014-01-31 00:04:02,0.30,7.75,2.00,17.48,24.70,26.77,5.98,35.71,990.27,2048.00,1477.62,1880.60,1970.11,349.39,320.71,30.45,0000 0000 0000 0000 000000
2014-01-31 00:05:02,0.27,7.75,2.00,17.47,24.70,26.76,6.07,35.79,990.28,2048.01,1477.53,1880.49,1970.05,350.39,321.94,30.45,0000 0000 0000 0000 000000
2014-01-31 00:06:02,0.11,7.75,2.00,17.45,24.69,26.72,6.02,35.58,990.32,2048.00,1477.38,1880.38,1970.02,350.18,321.77,30.46,0000 0000 0000 0000 000000
2014-01-31 00:07:03,0.13,7.75,2.00,17.43,24.67,26.66,6.03,35.71,990.22,2048.01,1477.15,1880.22,1970.00,350.26,321.99,30.46,0000 0000 0000 0000 000000
2014-01-31 00:08:03,0.22,7.75,2.00,17.42,24.67,26.68,6.03,35.71,990.31,2048.01,1477.05,1880.08,1970.00,349.55,321.20,30.47,0000 0000 0000 0000 000000
2014-01-31 00:09:03,0.12,7.75,2.00,17.40,24.66,26.67,5.88,35.71,990.33,2048.00,1476.98,1880.02,1969.98,349.50,321.21,30.47,0000 0000 0000 0000 000000
2014-01-31 00:10:03,0.05,7.75,2.00,17.38,24.65,26.63,6.02,35.75,990.26,2048.01,1476.78,1880.01,1969.93,350.48,322.01,30.48,0000 0000 0000 0000 000000
2014-01-31 00:11:03,0.13,7.75,2.00,17.37,24.64,26.60,6.18,36.63,990.10,2048.02,1475.49,1872.60,1962.93,351.12,322.23,30.49,0000 0000 0000 0000 000000
2014-01-31 00:12:04,7.67,7.80,2.00,17.35,24.62,26.57,5.91,36.63,990.09,2048.31,1475.06,1857.83,1949.38,348.72,320.80,30.49,0000 0000 0000 0000 000000
2014-01-31 00:13:04,12.30,7.87,2.00,17.34,24.62,26.54,6.02,36.50,990.18,2048.72,1476.03,1852.79,1944.67,350.38,322.04,30.50,0000 0000 0000 0000 000000
2014-01-31 00:14:04,3.73,7.89,2.00,17.34,24.61,26.53,5.97,36.29,990.04,2048.88,1476.65,1851.02,1942.97,350.68,322.21,30.50,0000 0000 0000 0000 000000
2014-01-31 00:15:04,1.22,7.90,2.00,17.32,24.60,26.56,6.05,36.38,990.00,2048.94,1477.14,1850.36,1942.35,350.54,322.15,30.51,0000 0000 0000 0000 000000
2014-01-31 00:16:04,0.29,7.90,2.00,17.31,24.59,26.54,6.06,36.58,989.82,2048.95,1477.51,1850.13,1942.12,349.75,321.37,30.52,0000 0000 0000 0000 000000
2014-01-31 00:17:05,-0.02,7.90,2.00,17.29,24.57,26.52,6.02,36.54,989.83,2048.95,1477.74,1850.02,1941.97,350.23,321.84,30.52,0000 0000 0000 0000 000000
2014-01-31 00:18:05,-0.01,7.90,2.00,17.27,24.57,26.49,6.02,37.08,989.88,2048.96,1477.90,1849.96,1941.53,349.97,321.84,30.53,0000 0000 0000 0000 000000
2014-01-31 00:19:05,0.11,7.90,2.00,17.25,24.56,26.46,6.05,36.75,989.79,2048.97,1477.96,1849.78,1941.20,349.32,321.05,30.53,0000 0000 0000 0000 000000
2014-01-31 00:20:06,0.18,7.90,2.00,17.24,24.55,26.47,6.08,36.50,989.84,2048.95,1477.98,1849.42,1941.07,349.70,321.42,30.54,0000 0000 0000 0000 000000
2014-01-31 00:21:06,0.20,7.90,2.00,17.22,24.54,26.43,6.05,36.42,989.97,2048.98,1477.98,1849.19,1941.02,349.70,321.48,30.54,0000 0000 0000 0000 000000
2014-01-31 00:22:06,0.16,7.90,2.00,17.21,24.52,26.44,6.17,36.17,989.86,2048.98,1477.98,1849.09,1941.00,351.08,322.74,30.55,0000 0000 0000 0000 000000
2014-01-31 00:23:06,0.06,7.90,2.00,17.19,24.52,26.42,6.01,36.54,989.63,2048.97,1477.90,1849.02,1940.80,350.35,321.99,30.56,0000 0000 0000 0000 000000
2014-01-31 00:24:07,0.14,7.90,2.00,17.19,24.50,26.43,6.01,36.71,989.71,2048.99,1477.88,1849.00,1940.38,349.01,320.80,30.56,0000 0000 0000 0000 000000
2014-01-31 00:25:07,0.16,7.91,2.00,17.17,24.50,26.43,6.05,36.79,989.76,2048.97,1477.66,1848.95,1940.16,349.87,321.71,30.57,0000 0000 0000 0000 000000
2014-01-31 00:26:07,0.21,7.91,2.00,17.16,24.49,26.38,6.02,37.04,989.57,2048.97,1477.29,1848.59,1940.06,350.43,322.09,30.57,0000 0000 0000 0000 000000
2014-01-31 00:27:07,0.38,7.91,2.00,17.14,24.47,26.35,6.11,36.75,989.73,2048.97,1477.10,1848.23,1940.01,350.40,321.92,30.58,0000 0000 0000 0000 000000
2014-01-31 00:28:08,0.27,7.91,2.00,17.14,24.47,26.31,6.00,36.83,989.52,2048.98,1477.03,1848.09,1939.96,349.57,321.04,30.59,0000 0000 0000 0000 000000
2014-01-31 00:29:08,0.15,7.91,2.00,17.12,24.45,26.31,6.11,36.88,989.39,2048.98,1476.99,1848.03,1939.64,349.90,321.19,30.59,0000 0000 0000 0000 000000
2014-01-31 00:30:08,0.14,7.91,1.50,17.11,24.45,26.32,6.21,36.29,989.60,2048.99,1476.98,1848.01,1939.27,351.01,322.38,30.60,0000 0000 0000 0000 000000
2014-01-31 00:31:08,0.14,7.91,1.00,17.09,24.43,26.33,5.90,36.71,989.54,2048.99,1476.77,1847.98,1939.10,349.00,321.15,30.60,0000 0000 0000 0000 000000
2014-01-31 00:32:08,0.18,7.91,1.00,17.09,24.42,26.29,6.19,36.75,989.47,2048.99,1476.41,1847.81,1939.03,350.22,321.94,30.61,0000 0000 0000 0000 000000
2014-01-31 00:33:09,0.30,7.92,1.00,17.07,24.42,26.26,6.05,37.13,989.32,2048.99,1476.16,1847.38,1938.99,349.52,321.38,30.61,0000 0000 0000 0000 000000
2014-01-31 00:34:09,0.38,7.92,1.00,17.06,24.40,26.21,6.09,36.88,989.38,2048.99,1476.07,1847.15,1938.95,349.86,321.69,30.62,0000 0000 0000 0000 000000
2014-01-31 00:35:09,0.16,7.92,1.00,17.04,24.40,26.27,6.14,37.13,989.30,2048.99,1476.02,1847.06,1938.79,349.79,321.54,30.63,0000 0000 0000 0000 000000
2014-01-31 00:36:10,0.12,7.92,1.00,17.02,24.38,26.27,5.96,36.88,989.30,2048.99,1475.99,1847.02,1938.38,348.31,320.19,30.63,0000 0000 0000 0000 000000
2014-01-31 00:37:10,0.16,7.92,1.00,17.02,24.37,26.31,5.97,36.83,989.30,2048.99,1475.97,1847.00,1938.14,349.63,321.28,30.64,0000 0000 0000 0000 000000
2014-01-31 00:38:10,0.11,7.92,1.00,17.01,24.36,26.24,5.92,37.33,989.26,2049.01,1475.70,1846.89,1938.05,349.67,321.40,30.64,0000 0000 0000 0000 000000
2014-01-31 00:39:10,0.23,7.92,1.00,16.98,24.35,26.21,6.01,37.00,989.22,2049.01,1475.33,1846.51,1938.01,350.18,322.04,30.65,0000 0000 0000 0000 000000
2014-01-31 00:40:11,0.44,7.93,1.00,16.97,24.34,26.15,5.93,36.67,989.25,2049.03,1475.13,1846.19,1937.99,349.45,321.30,30.66,0000 0000 0000 0000 000000
2014-01-31 00:41:11,0.28,7.93,1.00,16.95,24.32,26.16,6.05,37.21,989.28,2049.01,1475.05,1846.06,1937.92,349.94,321.91,30.66,0000 0000 0000 0000 000000
2014-01-31 00:42:11,0.10,7.93,1.00,16.93,24.32,26.15,5.98,36.54,989.29,2049.03,1475.01,1846.02,1937.70,349.29,321.34,30.67,0000 0000 0000 0000 000000
2014-01-31 00:43:11,0.13,7.93,1.00,16.92,24.30,26.12,6.02,36.71,989.28,2049.05,1474.99,1846.00,1937.40,349.30,321.22,30.67,0000 0000 0000 0000 000000
2014-01-31 00:44:12,0.14,7.93,1.00,16.91,24.29,26.12,6.13,37.21,989.21,2049.06,1474.94,1846.00,1937.17,350.01,322.08,30.68,0000 0000 0000 0000 000000
2014-01-31 00:45:12,0.09,7.93,1.00,16.90,24.28,26.08,5.97,36.42,989.25,2049.16,1474.83,1846.00,1937.10,348.80,321.00,30.69,0000 0000 0000 0000 000000
2014-01-31 00:46:12,0.27,7.93,1.00,16.89,24.27,26.10,6.11,36.50,989.31,2049.41,1474.65,1846.00,1937.04,351.12,323.04,30.69,0000 0000 0000 0000 000000
2014-01-31 00:47:12,0.32,7.93,1.00,16.88,24.25,26.08,6.03,36.58,989.27,2049.55,1474.39,1845.96,1937.01,349.88,321.79,30.70,0000 0000 0000 0000 000000
2014-01-31 00:48:13,0.35,7.94,1.00,16.87,24.25,26.05,6.22,36.50,989.23,2049.66,1474.16,1845.78,1937.00,351.12,323.26,30.70,0000 0000 0000 0000 000000
2014-01-31 00:49:13,0.36,7.94,1.00,16.86,24.23,26.04,6.13,36.83,989.25,2049.69,1474.05,1845.37,1936.98,350.79,322.40,30.71,0000 0000 0000 0000 000000
2014-01-31 00:50:13,0.28,7.94,1.00,16.85,24.22,26.08,5.98,37.08,989.22,2049.79,1473.98,1845.13,1936.79,349.70,321.71,30.71,0000 0000 0000 0000 000000
2014-01-31 00:51:14,0.38,7.94,1.00,16.84,24.21,26.06,6.10,37.00,989.22,2049.90,1473.92,1845.05,1936.39,349.68,321.26,30.72,0000 0000 0000 0000 000000
2014-01-31 00:52:14,0.31,7.94,1.00,16.83,24.20,26.00,6.19,36.58,989.25,2049.93,1473.74,1845.00,1936.16,350.64,322.44,30.73,0000 0000 0000 0000 000000
2014-01-31 00:53:14,0.25,7.95,1.00,16.82,24.19,25.96,6.11,36.71,989.26,2049.94,1473.38,1844.98,1936.05,349.07,321.37,30.73,0000 0000 0000 0000 000000
2014-01-31 00:54:14,0.22,7.95,1.00,16.82,24.17,25.96,6.00,36.67,989.19,2049.96,1473.14,1844.67,1936.02,349.41,321.77,30.74,0000 0000 0000 0000 000000
2014-01-31 00:55:14,0.32,7.95,1.00,16.80,24.17,25.95,6.17,36.92,988.91,2049.98,1473.05,1844.29,1935.99,350.45,322.30,30.74,0000 0000 0000 0000 000000
2014-01-31 00:56:15,0.26,7.95,1.00,16.79,24.15,25.94,6.13,36.75,989.05,2049.99,1473.01,1844.11,1935.94,350.46,322.07,30.75,0000 0000 0000 0000 000000
2014-01-31 00:57:15,0.17,7.95,1.00,16.78,24.15,25.94,6.11,36.63,989.16,2049.99,1472.73,1844.02,1935.63,349.63,321.32,30.76,0000 0000 0000 0000 000000
2014-01-31 00:58:15,0.27,7.95,1.00,16.76,24.13,25.96,6.09,36.67,989.13,2049.99,1472.33,1843.88,1935.23,350.46,322.41,30.76,0000 0000 0000 0000 000000
2014-01-31 00:59:16,0.38,7.95,1.00,16.74,24.12,25.93,5.93,36.79,989.04,2049.99,1472.12,1843.51,1935.08,349.43,321.45,30.77,0000 0000 0000 0000 000000
2014-01-31 01:00:16,0.38,7.96,0.33,16.73,24.11,25.91,6.00,36.75,989.12,2049.99,1472.04,1843.20,1935.00,349.64,321.71,30.77,0000 0000 0000 0000 000000
2014-01-31 01:01:16,0.23,7.96,0.00,16.72,24.10,25.91,6.06,37.04,989.05,2050.01,1472.01,1843.07,1934.85,349.83,321.86,30.78,0000 0000 0000 0000 000000
2014-01-31 01:02:16,0.17,7.96,0.00,16.72,24.09,25.86,6.10,36.92,988.85,2050.02,1471.63,1843.01,1934.45,349.91,321.87,30.78,0000 0000 0000 0000 000000
2014-01-31 01:03:17,0.33,7.96,0.00,16.71,24.07,25.87,6.00,36.42,988.92,2050.00,1471.30,1842.92,1934.18,350.36,321.80,30.79,0000 0000 0000 0000 000000
2014-01-31 01:04:17,0.34,7.96,0.00,16.69,24.07,25.88,6.07,36.88,988.91,2050.06,1471.12,1842.48,1934.06,349.95,321.95,30.80,0000 0000 0000 0000 000000
2014-01-31 01:05:17,0.35,7.97,0.00,16.69,24.05,25.92,6.09,37.17,988.84,2050.05,1471.03,1842.18,1933.95,349.43,321.56,30.80,0000 0000 0000 0000 000000
2014-01-31 01:06:18,0.28,7.97,0.00,16.69,24.04,25.89,6.02,36.46,988.81,2050.20,1470.98,1842.06,1933.47,350.44,322.38,30.81,0000 0000 0000 0000 000000
2014-01-31 01:07:18,0.35,7.97,0.00,16.69,24.02,25.91,6.10,37.46,988.84,2050.27,1470.82,1841.89,1933.18,350.67,322.54,30.81,0000 0000 0000 0000 000000
2014-01-31 01:08:18,0.41,7.97,0.00,16.67,24.02,25.87,6.06,36.75,988.80,2050.35,1470.37,1841.38,1933.06,350.55,322.48,30.82,0000 0000 0000 0000 000000
2014-01-31 01:09:19,0.73,7.98,0.00,16.66,24.00,25.89,6.17,37.04,988.85,2050.65,1469.82,1840.84,1932.63,350.78,322.73,30.83,0000 0000 0000 0000 000000
2014-01-31 01:10:19,0.89,7.98,0.00,16.64,24.00,25.88,6.08,37.04,988.85,2050.85,1469.76,1840.37,1932.20,349.85,321.89,30.83,0000 0000 0000 0000 000000
2014-01-31 01:11:19,0.68,7.99,0.00,16.65,23.98,25.90,6.09,37.29,988.89,2050.94,1469.91,1840.18,1932.07,348.98,321.10,30.84,0000 0000 0000 0000 000000
2014-01-31 01:12:19,0.13,7.99,0.00,16.64,23.97,25.88,6.09,37.17,988.87,2050.97,1469.97,1840.12,1932.02,349.91,321.96,30.84,0000 0000 0000 0000 000000
2014-01-31 01:13:20,0.05,7.99,0.00,16.62,23.95,25.84,6.07,36.96,989.00,2050.99,1469.98,1840.11,1932.00,350.65,322.70,30.85,0000 0000 0000 0000 000000
2014-01-31 01:14:20,0.02,7.99,0.00,16.60,23.95,25.81,5.99,37.08,988.93,2050.99,1469.90,1840.05,1931.94,349.92,321.72,30.86,0000 0000 0000 0000 000000
2014-01-31 01:15:20,0.07,7.99,0.00,16.59,23.93,25.85,6.13,37.17,988.84,2050.98,1469.86,1840.01,1931.79,349.32,321.81,30.86,0000 0000 0000 0000 000000
2014-01-31 01:16:20,0.10,7.99,0.00,16.57,23.92,25.83,5.93,36.75,988.95,2050.98,1469.83,1840.00,1931.41,348.71,320.95,30.87,0000 0000 0000 0000 000000
2014-01-31 01:17:21,0.14,7.99,0.00,16.55,23.91,25.84,6.10,37.04,988.87,2050.99,1469.48,1839.99,1931.18,349.53,321.71,30.87,0000 0000 0000 0000 000000
2014-01-31 01:18:21,0.25,7.99,0.00,16.54,23.90,25.81,6.03,36.71,988.77,2050.99,1469.26,1839.99,1931.07,350.49,322.70,30.88,0000 0000 0000 0000 000000
2014-01-31 01:19:21,0.16,7.99,0.00,16.53,23.89,25.84,6.18,37.08,988.76,2050.99,1469.11,1839.98,1931.02,351.44,323.46,30.88,0000 0000 0000 0000 000000
2014-01-31 01:20:22,0.11,7.99,0.00,16.52,23.87,25.80,5.86,37.00,988.77,2050.99,1469.04,1839.86,1931.00,348.98,321.20,30.89,0000 0000 0000 0000 000000
2014-01-31 01:21:22,0.13,7.99,0.00,16.50,23.87,25.78,6.08,37.08,988.69,2050.99,1469.01,1839.47,1931.00,350.17,322.13,30.90,0000 0000 0000 0000 000000
2014-01-31 01:22:22,0.21,7.99,0.00,16.49,23.85,25.77,6.09,37.00,988.66,2050.99,1468.98,1839.18,1930.99,349.92,322.17,30.90,0000 0000 0000 0000 000000
2014-01-31 01:23:22,0.16,8.00,0.00,16.48,23.85,25.75,6.06,37.29,988.50,2050.99,1468.97,1839.07,1930.81,349.25,321.40,30.91,0000 0000 0000 0000 000000
2014-01-31 01:24:23,0.16,8.00,0.00,16.47,23.83,25.80,6.03,37.46,988.46,2050.99,1468.59,1839.02,1930.38,350.08,321.96,30.91,0000 0000 0000 0000 000000
2014-01-31 01:25:23,0.30,8.00,0.00,16.47,23.82,25.81,6.02,37.04,988.62,2050.99,1468.27,1839.00,1930.15,350.60,322.70,30.92,0000 0000 0000 0000 000000
2014-01-31 01:26:23,0.25,8.00,0.00,16.46,23.81,25.80,6.14,37.00,988.47,2050.99,1468.12,1838.99,1930.06,350.11,321.98,30.93,0000 0000 0000 0000 000000
2014-01-31 01:27:23,0.12,8.00,0.00,16.46,23.80,25.83,6.08,36.96,988.32,2051.00,1468.04,1838.96,1930.03,349.95,322.04,30.93,0000 0000 0000 0000 000000
2014-01-31 01:28:24,0.07,8.00,0.00,16.45,23.79,25.84,6.15,37.00,988.34,2051.03,1468.02,1838.94,1930.01,350.58,322.80,30.94,0000 0000 0000 0000 000000
2014-01-31 01:29:24,0.06,8.00,0.00,16.44,23.77,25.80,6.12,37.46,988.30,2051.03,1467.98,1838.75,1930.00,348.67,320.85,30.94,0000 0000 0000 0000 000000
2014-01-31 01:30:24,0.17,8.00,0.00,16.43,23.76,25.72,6.09,37.50,988.22,2051.10,1467.70,1838.32,1929.98,350.07,322.13,30.95,0000 0000 0000 0000 000000
2014-01-31 01:31:24,0.41,8.00,0.00,16.40,23.75,25.67,6.23,37.63,988.20,2051.15,1467.49,1838.14,1929.95,350.54,322.77,30.95,0000 0000 0000 0000 000000
2014-01-31 01:32:25,0.32,8.01,0.00,16.39,23.74,25.68,6.11,37.79,987.99,2051.33,1467.22,1838.05,1929.60,350.30,322.30,30.96,0000 0000 0000 0000 000000
2014-01-31 01:33:25,0.48,8.01,0.00,16.40,23.72,25.75,6.00,37.42,988.16,2051.54,1467.06,1837.97,1929.23,350.10,322.16,30.97,0000 0000 0000 0000 000000
2014-01-31 01:34:25,0.50,8.01,0.00,16.38,23.72,25.73,5.95,37.21,988.26,2051.76,1467.01,1837.73,1929.08,350.17,322.03,30.97,0000 0000 0000 0000 000000
2014-01-31 01:35:25,0.45,8.01,0.00,16.37,23.70,25.74,6.11,37.21,988.26,2051.89,1466.97,1837.34,1929.02,350.92,322.99,30.98,0000 0000 0000 0000 000000
2014-01-31 01:36:26,0.39,8.02,0.00,16.36,23.70,25.73,5.99,37.00,988.23,2051.94,1466.82,1837.13,1928.95,349.86,322.01,30.98,0000 0000 0000 0000 000000
2014-01-31 01:37:26,0.30,8.02,0.00,16.35,23.68,25.71,6.13,37.38,988.26,2051.96,1466.42,1837.05,1928.62,350.37,322.44,30.99,0000 0000 0000 0000 000000
2014-01-31 01:38:26,0.36,8.02,0.00,16.34,23.67,25.70,6.11,36.88,988.23,2051.98,1466.18,1837.01,1928.26,349.76,321.73,31.00,0000 0000 0000 0000 000000
2014-01-31 01:39:27,0.28,8.02,0.00,16.32,23.66,25.64,6.08,37.42,988.16,2051.98,1466.07,1836.96,1928.10,349.33,321.54,31.00,0000 0000 0000 0000 000000
2014-01-31 01:40:27,0.15,8.02,0.00,16.31,23.65,25.66,5.99,37.29,988.18,2051.99,1466.01,1836.85,1928.03,349.16,321.24,31.01,0000 0000 0000 0000 000000
2014-01-31 01:41:27,0.14,8.03,0.00,16.29,23.64,25.71,6.02,37.42,988.29,2052.00,1466.00,1836.55,1928.01,349.28,322.01,31.01,0000 0000 0000 0000 000000
2014-01-31 01:42:27,0.19,8.03,0.00,16.27,23.62,25.69,6.03,37.83,988.09,2052.00,1465.82,1836.25,1927.99,349.66,321.89,31.02,0000 0000 0000 0000 000000
2014-01-31 01:43:28,0.19,8.03,0.00,16.27,23.62,25.67,6.14,37.38,988.12,2052.00,1465.69,1836.10,1927.98,350.25,322.81,31.03,0000 0000 0000 0000 000000
2014-01-31 01:44:28,0.23,8.03,0.00,16.27,23.60,25.67,6.15,37.25,988.27,2052.00,1465.41,1836.03,1927.72,350.19,322.43,31.03,0000 0000 0000 0000 000000
2014-01-31 01:45:28,0.27,8.03,0.00,16.27,23.59,25.71,6.09,37.71,988.15,2052.00,1465.15,1835.97,1927.33,350.50,322.81,31.04,0000 0000 0000 0000 000000
2014-01-31 01:46:28,0.28,8.03,0.00,16.27,23.57,25.67,6.09,37.75,987.86,2052.00,1465.01,1835.86,1927.11,350.34,322.44,31.04,0000 0000 0000 0000 000000
2014-01-31 01:47:29,0.23,8.03,0.00,16.27,23.57,25.70,5.98,38.00,987.80,2052.01,1465.00,1835.56,1927.04,349.43,321.88,31.05,0000 0000 0000 0000 000000
2014-01-31 01:48:29,0.17,8.03,0.00,16.25,23.55,25.68,6.10,37.54,987.85,2052.02,1465.00,1835.31,1927.00,349.77,321.93,31.05,0000 0000 0000 0000 000000
2014-01-31 01:49:29,0.14,8.03,0.00,16.24,23.55,25.68,6.02,37.29,987.90,2052.05,1464.89,1835.13,1926.98,349.87,322.04,31.06,0000 0000 0000 0000 000000
2014-01-31 01:50:30,0.17,8.04,0.00,16.23,23.53,25.67,6.16,37.75,987.85,2052.08,1464.78,1835.05,1926.85,350.89,322.98,31.07,0000 0000 0000 0000 000000
2014-01-31 01:51:30,0.28,8.04,0.00,16.22,23.52,25.67,6.03,37.63,987.90,2052.13,1464.43,1835.01,1926.42,349.95,322.09,31.07,0000 0000 0000 0000 000000
2014-01-31 01:52:30,0.31,8.04,0.00,16.22,23.51,25.60,6.04,37.58,987.81,2052.10,1464.17,1834.98,1926.15,350.31,322.45,31.08,0000 0000 0000 0000 000000
2014-01-31 01:53:31,0.22,8.04,0.00,16.22,23.50,25.61,5.99,37.96,987.74,2052.17,1464.06,1834.83,1926.05,349.98,322.13,31.08,0000 0000 0000 0000 000000
2014-01-31 01:54:31,0.32,8.04,0.00,16.21,23.49,25.61,5.97,37.75,987.82,2052.38,1464.02,1834.47,1926.02,348.65,320.93,31.09,0000 0000 0000 0000 000000
2014-01-31 01:55:31,0.38,8.04,0.00,16.19,23.47,25.63,6.15,37.50,987.93,2052.49,1464.00,1834.27,1925.99,350.05,322.24,31.10,0000 0000 0000 0000 000000
2014-01-31 01:56:31,0.30,8.05,0.00,16.17,23.47,25.57,6.10,37.38,987.87,2052.74,1463.98,1834.15,1925.88,350.41,322.83,31.10,0000 0000 0000 0000 000000
2014-01-31 01:57:32,0.36,8.05,0.00,16.15,23.45,25.57,6.16,37.67,987.78,2052.84,1463.87,1834.05,1925.55,350.17,322.34,31.11,0000 0000 0000 0000 000000
2014-01-31 01:58:32,0.38,8.05,0.00,16.13,23.45,25.56,6.20,37.96,987.54,2052.88,1463.42,1834.02,1925.23,350.00,321.85,31.11,0000 0000 0000 0000 000000
2014-01-31 01:59:32,0.36,8.05,0.00,16.12,23.43,25.54,6.07,37.42,987.80,2052.93,1463.17,1833.97,1925.08,350.32,322.16,31.12,0000 0000 0000 0000 000000
2014-01-31 02:00:32,0.25,8.06,0.00,16.11,23.42,25.62,5.96,37.54,987.82,2052.97,1463.07,1833.97,1925.03,349.20,321.54,31.12,0000 0000 0000 0000 000000
2014-01-31 02:01:33,0.13,8.06,0.00,16.10,23.41,25.54,6.03,37.83,987.60,2052.97,1463.02,1833.71,1925.01,349.24,321.63,31.13,0000 0000 0000 0000 000000
2014-01-31 02:02:33,0.17,8.06,0.00,16.09,23.40,25.43,6.06,38.08,987.51,2052.97,1463.00,1833.33,1924.99,350.67,322.99,31.14,0000 0000 0000 0000 000000
2014-01-31 02:03:33,0.22,8.06,0.00,16.08,23.38,25.43,6.05,37.79,987.55,2052.98,1462.97,1833.12,1924.78,350.81,322.97,31.14,0000 0000 0000 0000 000000
2014-01-31 02:04:33,0.19,8.06,0.00,16.07,23.37,25.45,6.09,38.08,987.62,2052.98,1462.73,1833.04,1924.39,350.29,322.54,31.15,0000 0000 0000 0000 000000
2014-01-31 02:05:34,0.29,8.06,0.00,16.05,23.37,25.41,6.08,37.54,987.73,2052.99,1462.37,1833.01,1924.16,349.80,322.13,31.15,0000 0000 0000 0000 000000
2014-01-31 02:06:34,0.29,8.06,0.00,16.04,23.35,25.41,6.07,37.67,987.80,2052.99,1462.15,1833.00,1924.07,349.89,322.29,31.16,0000 0000 0000 0000 000000
2014-01-31 02:07:34,0.15,8.06,0.00,16.04,23.35,25.50,6.13,38.00,987.77,2052.99,1462.08,1832.99,1924.03,349.98,322.71,31.17,0000 0000 0000 0000 000000
2014-01-31 02:08:34,0.06,8.06,0.00,16.04,23.33,25.50,6.05,37.83,987.72,2052.99,1462.03,1832.96,1924.01,350.36,322.74,31.17,0000 0000 0000 0000 000000
2014-01-31 02:09:34,0.03,8.06,0.00,16.04,23.32,25.46,6.04,38.00,987.77,2053.00,1462.01,1832.94,1923.99,350.31,322.63,31.18,0000 0000 0000 0000 000000
2014-01-31 02:10:35,0.06,8.06,0.00,16.04,23.31,25.48,6.11,38.00,987.71,2053.01,1461.82,1832.42,1923.80,349.78,322.14,31.18,0000 0000 0000 0000 000000
2014-01-31 02:11:35,0.71,8.06,0.00,16.03,23.30,25.53,6.07,38.04,987.66,2053.03,1461.32,1831.41,1922.73,350.33,322.69,31.19,0000 0000 0000 0000 000000
2014-01-31 02:12:35,0.81,8.07,0.00,16.02,23.29,25.53,6.10,38.00,987.75,2053.02,1461.67,1831.15,1922.32,349.52,321.92,31.20,0000 0000 0000 0000 000000
2014-01-31 02:13:36,0.19,8.07,0.00,16.03,23.27,25.54,6.02,38.21,987.77,2053.06,1461.59,1831.05,1922.12,349.56,321.95,31.20,0000 0000 0000 0000 000000
2014-01-31 02:14:36,0.13,8.07,0.00,16.04,23.27,25.59,6.06,37.75,987.53,2053.21,1461.68,1831.01,1922.04,350.11,322.37,31.21,0000 0000 0000 0000 000000
2014-01-31 02:15:36,0.16,8.08,0.00,16.06,23.25,25.51,6.14,38.42,987.39,2053.33,1461.60,1830.98,1922.01,350.61,322.31,31.21,0000 0000 0000 0000 000000
2014-01-31 02:16:36,0.22,8.08,0.00,16.06,23.25,25.51,6.17,37.88,987.52,2053.35,1461.31,1830.88,1922.00,350.27,322.49,31.22,0000 0000 0000 0000 000000
2014-01-31 02:17:37,0.29,8.08,0.00,16.03,23.22,25.56,5.98,37.83,987.44,2053.44,1461.20,1830.81,1922.00,349.73,322.02,31.22,0000 0000 0000 0000 000000
2014-01-31 02:18:37,0.20,8.08,0.00,16.01,23.22,25.56,6.12,37.96,987.39,2053.60,1461.11,1830.73,1922.00,349.84,322.12,31.23,0000 0000 0000 0000 000000
2014-01-31 02:19:37,0.27,8.08,0.00,15.99,23.20,25.56,6.03,37.96,987.36,2053.75,1461.04,1830.44,1921.99,349.92,322.20,31.24,0000 0000 0000 0000 000000
2014-01-31 02:20:37,0.35,8.08,0.00,15.98,23.20,25.54,6.06,37.92,987.35,2053.81,1461.01,1830.20,1921.90,350.00,322.16,31.24,0000 0000 0000 0000 000000
2014-01-31 02:21:38,0.27,8.09,0.00,15.95,23.18,25.54,6.16,38.13,987.28,2053.88,1460.75,1830.07,1921.40,350.74,322.86,31.25,0000 0000 0000 0000 000000
2014-01-31 02:22:38,0.42,8.09,0.00,15.93,23.17,25.40,6.16,38.25,987.28,2053.93,1460.43,1830.02,1921.17,349.81,322.10,31.25,0000 0000 0000 0000 000000
2014-01-31 02:23:38,0.32,8.09,0.00,15.91,23.16,25.37,6.16,37.92,987.28,2053.97,1460.22,1829.98,1921.06,351.19,323.43,31.26,0000 0000 0000 0000 000000
2014-01-31 02:24:39,0.22,8.09,0.00,15.89,23.15,25.40,6.08,38.13,987.30,2053.99,1460.09,1829.64,1921.01,349.66,322.05,31.27,0000 0000 0000 0000 000000
2014-01-31 02:25:39,0.29,8.09,0.00,15.88,23.14,25.42,6.18,37.88,987.21,2053.99,1460.01,1829.30,1920.99,350.30,322.80,31.27,0000 0000 0000 0000 000000
2014-01-31 02:26:39,0.25,8.10,0.00,15.87,23.12,25.42,6.14,38.21,987.01,2053.99,1459.67,1829.11,1920.72,350.38,322.71,31.28,0000 0000 0000 0000 000000
2014-01-31 02:27:40,0.35,8.10,0.00,15.86,23.12,25.41,6.04,37.92,987.06,2053.99,1459.38,1829.03,1920.36,349.37,321.73,31.28,0000 0000 0000 0000 000000
2014-01-31 02:28:40,0.30,8.10,0.00,15.84,23.10,25.41,6.10,38.25,987.14,2053.99,1459.17,1828.97,1920.14,349.96,322.29,31.29,0000 0000 0000 0000 000000
2014-01-31 02:29:40,0.19,8.10,0.00,15.82,23.09,25.34,6.02,38.21,986.96,2053.99,1459.05,1828.88,1920.05,350.17,322.67,31.29,0000 0000 0000 0000 000000
2014-01-31 02:30:40,0.18,8.10,0.00,15.81,23.07,25.36,5.98,38.13,987.08,2053.99,1459.02,1828.48,1920.02,350.89,323.39,31.30,0000 0000 0000 0000 000000
2014-01-31 02:31:40,0.20,8.10,0.00,15.78,23.07,25.29,6.11,38.21,986.89,2053.99,1458.93,1828.21,1920.00,350.66,322.96,31.31,0000 0000 0000 0000 000000
2014-01-31 02:32:41,0.26,8.10,0.00,15.77,23.05,25.23,5.90,37.83,986.89,2054.04,1458.69,1828.08,1919.95,349.40,321.81,31.31,0000 0000 0000 0000 000000
2014-01-31 02:33:41,0.22,8.11,0.00,15.77,23.05,25.24,5.98,37.96,986.89,2054.05,1458.47,1828.03,1919.71,348.90,321.90,31.32,0000 0000 0000 0000 000000
2014-01-31 02:34:41,0.28,8.11,0.00,15.76,23.04,25.20,6.05,38.04,986.91,2054.12,1458.19,1827.96,1919.30,350.50,323.21,31.32,0000 0000 0000 0000 000000
2014-01-31 02:35:42,0.40,8.11,0.00,15.74,23.02,25.25,6.09,38.04,987.12,2054.20,1458.00,1827.56,1919.11,349.54,321.74,31.33,0000 0000 0000 0000 000000
2014-01-31 02:36:42,0.52,8.11,0.00,15.72,23.01,25.19,6.07,37.92,986.90,2054.37,1457.62,1827.21,1918.99,349.77,322.20,31.34,0000 0000 0000 0000 000000